Location: Selby
(38.0566°N, 122.2439°W)
Time: 15:23:52
(UTC+00:00)

CZ-6A DEB - Visible Passes

Search period start: 04 October 2024 00:00
Search period end: 14 October 2024 00:00
Orbit: 558 x 793 km, 98.7° (Epoch: 04 October)

Date Brightness Start Highest point End Pass type
(mag) Time Alt. Az. Time Alt. Az. Time Alt. Az.
05 Oct ? 04:08:00 12° N 04:08:00 12° N 04:08:22 10° N visible
06 Oct ? 04:42:55 11° N 04:42:55 11° N 04:43:06 10° NNW visible
08 Oct ? 04:14:16 11° N 04:14:16 11° N 04:14:24 10° N visible
